When you browse on this site, cookies collect data to enhance your experience and personalize the content and advertising you see.
Visit our Privacy Policy to learn more. By continuing to use the site, you agree to this use of cookies and data.

Hourly Weather Salzburg

Today, 4 July, Saturday

Time Temperature Precipitation Wind Pressure Humidity
00:00 +6°C° 0 mm 0 mps 628 mmHg 95%
01:00 +5°C° 0 mm 0 mps 628 mmHg 95%
02:00 +5°C° 0 mm 0 mps 628 mmHg 95%
03:00 +5°C° 0 mm 0 mps 628 mmHg 95%
04:00 +6°C° 0 mm 1 mps 628 mmHg 95%
05:00 +6°C° 0 mm 0 mps 628 mmHg 92%
06:00 +8°C° 0 mm 0 mps 629 mmHg 88%
07:00 +10°C° 0 mm 0 mps 630 mmHg 85%
08:00 +12°C° 0 mm 0 mps 630 mmHg 75%
09:00 +15°C° 0 mm 1 mps 631 mmHg 64%
10:00 +18°C° 0 mm 1 mps 632 mmHg 54%
11:00 +18°C° 0 mm 1 mps 632 mmHg 52%
12:00 +18°C° 0 mm 2 mps 632 mmHg 50%
13:00 +18°C° 0 mm 2 mps 632 mmHg 48%
14:00 +18°C° 0 mm 2 mps 632 mmHg 50%
15:00 +18°C° 0 mm 2 mps 631 mmHg 52%
16:00 +18°C° 0 mm 2 mps 631 mmHg 53%
17:00 +16°C° 0 mm 2 mps 631 mmHg 63%
18:00 +15°C° 0 mm 1 mps 630 mmHg 72%
19:00 +14°C° 0 mm 1 mps 630 mmHg 81%
20:00 +12°C° 0 mm 1 mps 630 mmHg 85%
21:00 +10°C° 0 mm 1 mps 629 mmHg 90%
22:00 +9°C° 0 mm 1 mps 629 mmHg 94%
23:00 +9°C° 0 mm 1 mps 629 mmHg 94%

Tomorrow, 5 July, Sunday

Time Temperature Precipitation Wind Pressure Humidity
00:00 +9°C° 0 mm 1 mps 629 mmHg 94%
01:00 +8°C° 0 mm 1 mps 629 mmHg 94%
02:00 +8°C° 0 mm 1 mps 629 mmHg 94%
03:00 +8°C° 0 mm 1 mps 629 mmHg 94%
04:00 +8°C° 0 mm 1 mps 629 mmHg 94%
05:00 +9°C° 0 mm 1 mps 629 mmHg 89%
06:00 +11°C° 0 mm 1 mps 630 mmHg 85%
07:00 +12°C° 0 mm 0 mps 631 mmHg 80%
08:00 +15°C° 0 mm 1 mps 631 mmHg 69%
09:00 +18°C° 0 mm 1 mps 632 mmHg 58%
10:00 +21°C° 0 mm 1 mps 633 mmHg 46%
11:00 +21°C° 0 mm 1 mps 633 mmHg 44%
12:00 +22°C° 0 mm 1 mps 632 mmHg 42%
13:00 +23°C° 0 mm 1 mps 632 mmHg 40%
14:00 +21°C° 0 mm 2 mps 632 mmHg 43%
15:00 +21°C° 0 mm 2 mps 632 mmHg 46%
16:00 +21°C° 0 mm 2 mps 631 mmHg 49%
17:00 +19°C° 0 mm 2 mps 631 mmHg 59%
18:00 +19°C° 0 mm 1 mps 630 mmHg 70%
19:00 +16°C° 0 mm 1 mps 629 mmHg 81%
20:00 +15°C° 0 mm 1 mps 629 mmHg 85%
21:00 +13°C° 0 mm 1 mps 629 mmHg 89%
22:00 +10°C° 0 mm 0 mps 628 mmHg 94%
23:00 +11°C° 0 mm 1 mps 628 mmHg 94%

Day after tomorrow, 6 July, Monday

Time Temperature Precipitation Wind Pressure Humidity
00:00 +11°C° 0 mm 1 mps 628 mmHg 94%
01:00 +11°C° 0 mm 1 mps 628 mmHg 94%
02:00 +9°C° 0 mm 0 mps 627 mmHg 94%
03:00 +9°C° 0 mm 0 mps 627 mmHg 94%
04:00 +9°C° 0 mm 0 mps 627 mmHg 94%
05:00 +10°C° 0 mm 0 mps 627 mmHg 92%
06:00 +11°C° 0 mm 0 mps 627 mmHg 90%
07:00 +13°C° 0 mm 0 mps 628 mmHg 88%
08:00 +13°C° 0.1 mm 0 mps 628 mmHg 86%
09:00 +15°C° 0.1 mm 1 mps 628 mmHg 83%
10:00 +16°C° 0.1 mm 1 mps 628 mmHg 81%
11:00 +16°C° 0.2 mm 1 mps 628 mmHg 79%
12:00 +17°C° 0.2 mm 2 mps 628 mmHg 78%
13:00 +17°C° 0.2 mm 2 mps 628 mmHg 77%
14:00 +16°C° 0.5 mm 2 mps 627 mmHg 83%
15:00 +15°C° 0.5 mm 2 mps 627 mmHg 90%
16:00 +13°C° 0.5 mm 2 mps 626 mmHg 96%
17:00 +12°C° 1.6 mm 2 mps 626 mmHg 97%
18:00 +10°C° 1.6 mm 2 mps 626 mmHg 98%
19:00 +9°C° 1.6 mm 2 mps 626 mmHg 98%
20:00 +9°C° 2 mm 2 mps 626 mmHg 98%
21:00 +8°C° 2 mm 2 mps 627 mmHg 98%
22:00 +8°C° 2 mm 2 mps 627 mmHg 98%
23:00 +7°C° 1 mm 2 mps 627 mmHg 97%

7 July, Tuesday

Time Temperature Precipitation Wind Pressure Humidity
00:00 +6°C° 1 mm 2 mps 627 mmHg 97%
01:00 +6°C° 1 mm 2 mps 627 mmHg 97%
02:00 +5°C° 0.5 mm 2 mps 627 mmHg 97%
03:00 +6°C° 0.5 mm 1 mps 627 mmHg 97%
04:00 +5°C° 0.5 mm 1 mps 627 mmHg 97%
05:00 +6°C° 0.1 mm 1 mps 627 mmHg 96%
06:00 +6°C° 0.1 mm 1 mps 628 mmHg 95%
07:00 +7°C° 0.1 mm 1 mps 628 mmHg 94%
08:00 +8°C° 0.1 mm 1 mps 629 mmHg 82%
09:00 +10°C° 0.1 mm 1 mps 629 mmHg 70%
10:00 +12°C° 0.1 mm 1 mps 630 mmHg 58%
11:00 +13°C° 0 mm 1 mps 630 mmHg 53%
12:00 +14°C° 0 mm 2 mps 630 mmHg 49%
13:00 +15°C° 0 mm 2 mps 630 mmHg 44%
14:00 +15°C° 0 mm 2 mps 630 mmHg 45%
15:00 +15°C° 0 mm 2 mps 630 mmHg 47%
16:00 +15°C° 0 mm 2 mps 630 mmHg 48%
17:00 +14°C° 0 mm 2 mps 629 mmHg 57%
18:00 +12°C° 0 mm 2 mps 629 mmHg 67%
19:00 +11°C° 0 mm 1 mps 629 mmHg 76%
20:00 +9°C° 0 mm 1 mps 628 mmHg 82%
21:00 +7°C° 0 mm 1 mps 628 mmHg 88%
22:00 +4°C° 0 mm 0 mps 628 mmHg 94%
23:00 +4°C° 0 mm 0 mps 628 mmHg 94%

8 July, Wednesday

Time Temperature Precipitation Wind Pressure Humidity
00:00 +5°C° 0 mm 1 mps 628 mmHg 94%
01:00 +5°C° 0 mm 1 mps 628 mmHg 94%
02:00 +4°C° 0 mm 1 mps 628 mmHg 95%
03:00 +4°C° 0 mm 1 mps 627 mmHg 95%
04:00 +4°C° 0 mm 1 mps 627 mmHg 95%
05:00 +5°C° 0 mm 0 mps 628 mmHg 89%
06:00 +7°C° 0 mm 0 mps 629 mmHg 84%
07:00 +9°C° 0 mm 0 mps 630 mmHg 78%
08:00 +11°C° 0 mm 0 mps 631 mmHg 69%
09:00 +14°C° 0 mm 1 mps 631 mmHg 60%
10:00 +16°C° 0 mm 1 mps 632 mmHg 52%
11:00 +18°C° 0 mm 1 mps 632 mmHg 49%
12:00 +18°C° 0 mm 2 mps 632 mmHg 46%
13:00 +19°C° 0 mm 2 mps 632 mmHg 43%
14:00 +19°C° 0 mm 2 mps 632 mmHg 45%
15:00 +18°C° 0 mm 2 mps 632 mmHg 48%
16:00 +18°C° 0 mm 2 mps 631 mmHg 50%
17:00 +17°C° 0 mm 2 mps 631 mmHg 60%
18:00 +15°C° 0 mm 1 mps 631 mmHg 70%
19:00 +14°C° 0 mm 1 mps 630 mmHg 79%
20:00 +12°C° 0 mm 1 mps 630 mmHg 84%
21:00 +10°C° 0 mm 1 mps 629 mmHg 89%
22:00 +9°C° 0 mm 1 mps 629 mmHg 93%
23:00 +8°C° 0 mm 1 mps 629 mmHg 93%

9 July, Thursday

Time Temperature Precipitation Wind Pressure Humidity
00:00 +8°C° 0 mm 1 mps 629 mmHg 93%
01:00 +8°C° 0 mm 1 mps 629 mmHg 93%
02:00 +8°C° 0 mm 1 mps 629 mmHg 93%
03:00 +8°C° 0 mm 1 mps 629 mmHg 93%
04:00 +8°C° 0 mm 1 mps 628 mmHg 94%
05:00 +10°C° 0 mm 1 mps 629 mmHg 88%
06:00 +11°C° 0 mm 0 mps 630 mmHg 82%
07:00 +13°C° 0 mm 0 mps 631 mmHg 77%
08:00 +16°C° 0 mm 1 mps 631 mmHg 70%
09:00 +19°C° 0 mm 1 mps 632 mmHg 63%
10:00 +20°C° 0 mm 1 mps 632 mmHg 57%
11:00 +20°C° 0.2 mm 2 mps 632 mmHg 57%
12:00 +20°C° 0.2 mm 2 mps 632 mmHg 57%
13:00 +20°C° 0.2 mm 2 mps 632 mmHg 57%
14:00 +19°C° 0.6 mm 2 mps 632 mmHg 60%
15:00 +19°C° 0.6 mm 2 mps 631 mmHg 62%
16:00 +19°C° 0.6 mm 2 mps 631 mmHg 65%
17:00 +18°C° 0.2 mm 1 mps 631 mmHg 71%
18:00 +16°C° 0.2 mm 1 mps 630 mmHg 78%
19:00 +15°C° 0.2 mm 1 mps 630 mmHg 85%
20:00 +13°C° 0 mm 1 mps 630 mmHg 88%
21:00 +12°C° 0 mm 1 mps 630 mmHg 91%
22:00 +9°C° 0 mm 0 mps 629 mmHg 94%
23:00 +10°C° 0 mm 1 mps 629 mmHg 94%
Show more